| time (UTC) | temp F | wind direction | speed knots | gust knots | rain 1hr in | rain 24hr in | rain mn in | humidity % | barometer mb |
| 20260903070405 | 58 | 344 | 3.5 | 10.4 | 0.00 | 0.00 | 0.00 | 90 | 1012.2 |
| 20260903065905 | 58 | 331 | 5.2 | 10.4 | 0.00 | 0.00 | 0.00 | 89 | 1012.2 |
| 20260903065406 | 58 | 330 | 4.3 | 7.8 | 0.00 | 0.00 | 0.00 | 89 | 1012.2 |
| 20260903064906 | 58 | 342 | 4.3 | 7.8 | 0.00 | 0.00 | 0.00 | 89 | 1012.1 |
| 20260903064406 | 57 | 348 | 2.6 | 7.8 | 0.00 | 0.00 | 0.00 | 89 | 1012.1 |
| 20260903063906 | 57 | 352 | 2.6 | 7.8 | 0.00 | 0.00 | 0.00 | 89 | 1012.0 |
| 20260903062905 | 57 | 340 | 2.6 | 7.8 | 0.00 | 0.00 | 0.00 | 89 | 1012.1 |
| 20260903062406 | 57 | 340 | 2.6 | 7.0 | 0.00 | 0.00 | 0.00 | 89 | 1012.1 |
| 20260903060905 | 57 | 322 | 1.7 | 7.8 | 0.00 | 0.00 | 0.00 | 88 | 1012.2 |
| 20260903060405 | 57 | 357 | 2.6 | 7.8 | 0.00 | 0.00 | 0.00 | 88 | 1012.2 |
| 20260903055409 | 57 | 354 | 3.5 | 8.7 | 0.00 | 0.00 | 0.00 | 88 | 1012.3 |
| 20260903054907 | 57 | 348 | 4.3 | 7.8 | 0.00 | 0.00 | 0.00 | 88 | 1012.3 |
| 20260903054406 | 58 | 312 | 4.3 | 10.4 | 0.00 | 0.00 | 0.00 | 88 | 1012.2 |
| 20260903053405 | 58 | 333 | 2.6 | 7.8 | 0.00 | 0.00 | 0.00 | 88 | 1012.3 |
| 20260903052905 | 58 | 350 | 2.6 | 5.2 | 0.00 | 0.00 | 0.00 | 88 | 1012.3 |
| 20260903052405 | 58 | 347 | 2.6 | 7.0 | 0.00 | 0.00 | 0.00 | 87 | 1012.4 |
| 20260903051905 | 58 | 334 | 1.7 | 5.2 | 0.00 | 0.00 | 0.00 | 87 | 1012.4 |
| 20260903051405 | 58 | 334 | 2.6 | 8.7 | 0.00 | 0.00 | 0.00 | 87 | 1012.3 |
| 20260903050905 | 58 | 350 | 4.3 | 7.8 | 0.00 | 0.00 | 0.00 | 87 | 1012.4 |
| 20260903050405 | 58 | 343 | 1.7 | 7.8 | 0.00 | 0.00 | 0.00 | 87 | 1012.4 |
| 20260903045906 | 58 | 305 | 3.5 | 8.7 | 0.00 | 0.00 | 0.00 | 87 | 1012.5 |
| 20260903045405 | 58 | 342 | 3.5 | 10.4 | 0.00 | 0.00 | 0.00 | 87 | 1012.5 |
| 20260903044905 | 58 | 345 | 5.2 | 13.0 | 0.00 | 0.00 | 0.00 | 87 | 1012.6 |
| 20260903044405 | 58 | 326 | 3.5 | 10.4 | 0.00 | 0.00 | 0.00 | 87 | 1012.6 |
| 20260903043906 | 58 | 331 | 4.3 | 10.4 | 0.00 | 0.00 | 0.00 | 87 | 1012.6 |
| 20260903043405 | 58 | 339 | 4.3 | 10.4 | 0.00 | 0.00 | 0.00 | 86 | 1012.6 |
| 20260903042906 | 58 | 350 | 4.3 | 8.7 | 0.00 | 0.00 | 0.00 | 86 | 1012.6 |
| 20260903042405 | 59 | 341 | 2.6 | 8.7 | 0.00 | 0.00 | 0.00 | 86 | 1012.7 |
| 20260903041406 | 59 | 352 | 5.2 | 10.4 | 0.00 | 0.00 | 0.00 | 85 | 1012.6 |
| 20260903040905 | 59 | 336 | 5.2 | 10.4 | 0.00 | 0.00 | 0.00 | 84 | 1012.7 |
| 20260903040406 | 60 | 349 | 4.3 | 10.4 | 0.00 | 0.00 | 0.00 | 84 | 1012.8 |
| 20260903035406 | 60 | 322 | 4.3 | 10.4 | 0.00 | 0.00 | 0.00 | 84 | 1012.8 |
| 20260903034905 | 60 | 325 | 4.3 | 8.7 | 0.00 | 0.00 | 0.00 | 84 | 1012.8 |
| 20260903033905 | 60 | 344 | 7.0 | 10.4 | 0.00 | 0.00 | 0.00 | 84 | 1013.0 |
| 20260903033405 | 60 | 346 | 4.3 | 11.3 | 0.00 | 0.00 | 0.00 | 85 | 1013.0 |
| 20260903032905 | 60 | 333 | 4.3 | 11.3 | 0.00 | 0.00 | 0.00 | 86 | 1013.0 |
| 20260903032405 | 59 | 350 | 5.2 | 11.3 | 0.00 | 0.00 | 0.00 | 85 | 1013.1 |
| 20260903031905 | 59 | 342 | 6.1 | 11.3 | 0.00 | 0.00 | 0.00 | 86 | 1013.1 |
| 20260903031405 | 59 | 332 | 4.3 | 11.3 | 0.00 | 0.00 | 0.00 | 85 | 1013.1 |
| 20260903030906 | 59 | 352 | 4.3 | 10.4 | 0.00 | 0.00 | 0.00 | 85 | 1013.2 |
| 20260903030405 | 59 | 338 | 4.3 | 8.7 | 0.00 | 0.00 | 0.00 | 85 | 1013.2 |
| 20260903025906 | 59 | 331 | 2.6 | 7.0 | 0.00 | 0.00 | 0.00 | 85 | 1013.2 |
| 20260903024905 | 60 | 340 | 5.2 | 10.4 | 0.00 | 0.00 | 0.00 | 83 | 1013.3 |
| 20260903024406 | 60 | 345 | 3.5 | 7.0 | 0.00 | 0.00 | 0.00 | 83 | 1013.4 |
| 20260903023905 | 61 | 340 | 3.5 | 8.7 | 0.00 | 0.00 | 0.00 | 82 | 1013.4 |
| 20260903023405 | 62 | 348 | 3.5 | 10.4 | 0.00 | 0.00 | 0.00 | 81 | 1013.4 |
| 20260903022906 | 63 | 341 | 5.2 | 11.3 | 0.00 | 0.00 | 0.00 | 81 | 1013.5 |
| 20260903022405 | 63 | 354 | 5.2 | 13.9 | 0.00 | 0.00 | 0.00 | 81 | 1013.5 |
| 20260903021405 | 63 | 314 | 4.3 | 8.7 | 0.00 | 0.00 | 0.00 | 82 | 1013.7 |
| 20260903020905 | 63 | 339 | 4.3 | 10.4 | 0.00 | 0.00 | 0.00 | 83 | 1013.8 |
| 20260903015905 | 60 | 351 | 3.5 | 10.4 | 0.00 | 0.00 | 0.00 | 85 | 1013.9 |
| 20260903015405 | 59 | 339 | 6.1 | 11.3 | 0.00 | 0.00 | 0.00 | 84 | 1014.0 |
| 20260903014406 | 60 | 345 | 3.5 | 7.0 | 0.00 | 0.00 | 0.00 | 83 | 1014.0 |
| 20260903013905 | 61 | 338 | 5.2 | 8.7 | 0.00 | 0.00 | 0.00 | 82 | 1014.0 |
| 20260903013405 | 61 | 345 | 4.3 | 8.7 | 0.00 | 0.00 | 0.00 | 82 | 1014.0 |
| 20260903012405 | 61 | 341 | 4.3 | 10.4 | 0.00 | 0.00 | 0.00 | 83 | 1014.1 |
| 20260903011905 | 60 | 352 | 3.5 | 8.7 | 0.00 | 0.00 | 0.00 | 83 | 1014.2 |
| 20260903011405 | 60 | 334 | 5.2 | 11.3 | 0.00 | 0.00 | 0.00 | 83 | 1014.3 |
| 20260903010405 | 60 | 332 | 3.5 | 10.4 | 0.00 | 0.00 | 0.00 | 82 | 1014.5 |
| 20260903005905 | 60 | 330 | 4.3 | 10.4 | 0.00 | 0.00 | 0.00 | 82 | 1014.5 |
| 20260903005406 | 60 | 335 | 3.5 | 8.7 | 0.00 | 0.00 | 0.00 | 83 | 1014.5 |
| 20260903004905 | 60 | 349 | 5.2 | 10.4 | 0.00 | 0.00 | 0.00 | 82 | 1014.6 |
| 20260903003905 | 61 | 315 | 5.2 | 11.3 | 0.00 | 0.00 | 0.00 | 82 | 1014.9 |
| 20260903002905 | 61 | 342 | 6.1 | 14.8 | 0.00 | 0.00 | 0.00 | 82 | 1015.0 |
| 20260903002406 | 61 | 330 | 7.8 | 13.0 | 0.00 | 0.00 | 0.00 | 82 | 1015.0 |
| 20260903001905 | 61 | 350 | 6.1 | 13.0 | 0.00 | 0.00 | 0.00 | 82 | 1015.1 |
| 20260903001405 | 62 | 351 | 5.2 | 13.9 | 0.00 | 0.00 | 0.00 | 82 | 1015.2 |
| 20260903000905 | 62 | 352 | 6.1 | 12.2 | 0.00 | 0.00 | 0.00 | 82 | 1015.3 |
| 20260903000406 | 61 | 341 | 6.1 | 12.2 | 0.00 | 0.00 | 0.00 | 83 | 1015.3 |
| 20260902235905 | 61 | 343 | 7.8 | 13.0 | 0.00 | 0.00 | 0.00 | 83 | 1015.3 |
| 20260902235405 | 60 | 340 | 6.1 | 14.8 | 0.00 | 0.00 | 0.00 | 83 | 1015.3 |
| 20260902234905 | 60 | 341 | 6.1 | 11.3 | 0.00 | 0.00 | 0.00 | 84 | 1015.3 |
| 20260902234405 | 59 | 336 | 6.1 | 14.8 | 0.00 | 0.00 | 0.00 | 84 | 1015.3 |
| 20260902233905 | 60 | 347 | 5.2 | 12.2 | 0.00 | 0.00 | 0.00 | 84 | 1015.4 |
| 20260902233405 | 59 | 337 | 5.2 | 12.2 | 0.00 | 0.00 | 0.00 | 85 | 1015.4 |
| 20260902232905 | 59 | 328 | 5.2 | 13.0 | 0.00 | 0.00 | 0.00 | 85 | 1015.4 |
| 20260902232405 | 59 | 345 | 4.3 | 11.3 | 0.00 | 0.00 | 0.00 | 85 | 1015.5 |
| 20260902231905 | 59 | 323 | 5.2 | 11.3 | 0.00 | 0.00 | 0.00 | 85 | 1015.6 |
| 20260902231406 | 59 | 326 | 4.3 | 12.2 | 0.00 | 0.00 | 0.00 | 85 | 1015.7 |
| 20260902230905 | 59 | 341 | 4.3 | 12.2 | 0.00 | 0.00 | 0.00 | 85 | 1015.7 |
| 20260902230405 | 59 | 350 | 5.2 | 12.2 | 0.00 | 0.00 | 0.00 | 85 | 1015.8 |
| 20260902225405 | 58 | 314 | 6.1 | 13.0 | 0.00 | 0.00 | 0.00 | 85 | 1015.7 |
| 20260902224910 | 59 | 321 | 6.1 | 12.2 | 0.00 | 0.00 | 0.00 | 86 | 1015.6 |
| 20260902224405 | 58 | 337 | 4.3 | 10.4 | 0.00 | 0.00 | 0.00 | 86 | 1015.7 |
| 20260902223905 | 58 | 340 | 4.3 | 10.4 | 0.00 | 0.00 | 0.00 | 86 | 1015.7 |
| 20260902223405 | 58 | 347 | 4.3 | 10.4 | 0.00 | 0.00 | 0.00 | 85 | 1015.7 |
| 20260902222906 | 58 | 326 | 4.3 | 12.2 | 0.00 | 0.00 | 0.00 | 85 | 1015.6 |
| 20260902221905 | 59 | 329 | 5.2 | 11.3 | 0.00 | 0.00 | 0.00 | 85 | 1015.5 |
| 20260902221405 | 59 | 320 | 2.6 | 11.3 | 0.00 | 0.00 | 0.00 | 85 | 1015.6 |
| 20260902220906 | 58 | 336 | 2.6 | 12.2 | 0.00 | 0.00 | 0.00 | 85 | 1015.7 |
| 20260902220405 | 59 | 338 | 5.2 | 10.4 | 0.00 | 0.00 | 0.00 | 85 | 1015.6 |
| 20260902215905 | 59 | 342 | 4.3 | 11.3 | 0.00 | 0.00 | 0.00 | 85 | 1015.7 |
| 20260902215406 | 59 | 352 | 5.2 | 12.2 | 0.00 | 0.00 | 0.00 | 85 | 1015.6 |
| 20260902214906 | 58 | 334 | 5.2 | 11.3 | 0.00 | 0.00 | 0.00 | 85 | 1015.6 |
| 20260902214406 | 58 | 325 | 6.1 | 11.3 | 0.00 | 0.00 | 0.00 | 86 | 1015.6 |
| 20260902213907 | 58 | 305 | 4.3 | 10.4 | 0.00 | 0.00 | 0.00 | 86 | 1015.6 |
| 20260902212905 | 58 | 325 | 3.5 | 11.3 | 0.00 | 0.00 | 0.00 | 86 | 1015.8 |
| 20260902212406 | 58 | 338 | 4.3 | 10.4 | 0.00 | 0.00 | 0.00 | 87 | 1015.8 |
| 20260902211905 | 58 | 331 | 6.1 | 13.9 | 0.00 | 0.00 | 0.00 | 87 | 1015.9 |
| 20260902211406 | 57 | 340 | 6.1 | 12.2 | 0.00 | 0.00 | 0.00 | 87 | 1015.9 |
| 20260902205405 | 57 | 344 | 4.3 | 12.2 | 0.00 | 0.00 | 0.00 | 87 | 1015.9 |
| 20260902203905 | 57 | 349 | 5.2 | 13.9 | 0.00 | 0.00 | 0.00 | 87 | 1015.9 |
| 20260902203406 | 57 | 310 | 6.1 | 14.8 | 0.00 | 0.00 | 0.00 | 87 | 1015.9 |
| 20260902202905 | 56 | 335 | 6.1 | 13.9 | 0.00 | 0.00 | 0.00 | 87 | 1015.8 |
| 20260902202405 | 56 | 335 | 6.1 | 14.8 | 0.00 | 0.00 | 0.00 | 87 | 1015.8 |
| 20260902201906 | 56 | 341 | 6.1 | 11.3 | 0.00 | 0.00 | 0.00 | 87 | 1015.6 |
| 20260902200905 | 56 | 357 | 7.0 | 13.9 | 0.00 | 0.00 | 0.00 | 87 | 1015.6 |
| 20260902200405 | 56 | 347 | 6.1 | 18.2 | 0.00 | 0.00 | 0.00 | 87 | 1015.7 |
| 20260902195906 | 56 | 329 | 7.8 | 18.2 | 0.00 | 0.00 | 0.00 | 87 | 1015.6 |
| 20260902195406 | 56 | 341 | 7.8 | 13.9 | 0.00 | 0.00 | 0.00 | 87 | 1015.6 |
| 20260902194905 | 56 | 345 | 7.8 | 13.9 | 0.00 | 0.00 | 0.00 | 87 | 1015.6 |
| 20260902194405 | 56 | 336 | 6.1 | 14.8 | 0.00 | 0.00 | 0.00 | 87 | 1015.6 |
| 20260902193906 | 56 | 324 | 8.7 | 20.0 | 0.00 | 0.00 | 0.00 | 87 | 1015.7 |
| 20260902193406 | 56 | 334 | 7.8 | 14.8 | 0.00 | 0.00 | 0.00 | 87 | 1015.6 |
| 20260902192905 | 56 | 338 | 8.7 | 15.6 | 0.00 | 0.00 | 0.00 | 87 | 1015.6 |
| 20260902192405 | 56 | 349 | 7.8 | 17.4 | 0.00 | 0.00 | 0.00 | 87 | 1015.6 |
| 20260902191906 | 56 | 343 | 6.1 | 14.8 | 0.00 | 0.00 | 0.00 | 87 | 1015.5 |
| 20260902191405 | 56 | 314 | 7.0 | 14.8 | 0.00 | 0.00 | 0.00 | 87 | 1015.4 |
| 20260902190405 | 56 | 345 | 7.0 | 17.4 | 0.00 | 0.00 | 0.00 | 87 | 1015.4 |
| 20260902185905 | 56 | 336 | 7.8 | 17.4 | 0.00 | 0.00 | 0.00 | 87 | 1015.3 |
| 20260902185406 | 56 | 315 | 7.8 | 17.4 | 0.00 | 0.00 | 0.00 | 87 | 1015.3 |
| 20260902184906 | 56 | 348 | 7.8 | 18.2 | 0.00 | 0.00 | 0.00 | 87 | 1015.1 |
| 20260902184405 | 56 | 347 | 7.8 | 17.4 | 0.00 | 0.00 | 0.00 | 87 | 1015.1 |
| 20260902183406 | 56 | 312 | 7.8 | 13.0 | 0.00 | 0.00 | 0.00 | 87 | 1015.1 |
| 20260902182905 | 56 | 351 | 7.0 | 13.9 | 0.00 | 0.00 | 0.00 | 87 | 1015.1 |
| 20260902182406 | 56 | 334 | 7.0 | 14.8 | 0.00 | 0.00 | 0.00 | 87 | 1015.0 |
| 20260902181905 | 56 | 331 | 7.8 | 17.4 | 0.00 | 0.00 | 0.00 | 87 | 1015.0 |
| 20260902181405 | 56 | 342 | 9.6 | 19.1 | 0.00 | 0.00 | 0.00 | 87 | 1015.0 |
| 20260902180406 | 56 | 346 | 7.8 | 15.6 | 0.00 | 0.00 | 0.00 | 87 | 1015.1 |
| 20260902175405 | 56 | 337 | 8.7 | 19.1 | 0.00 | 0.00 | 0.00 | 87 | 1015.3 |
| 20260902174905 | 56 | 332 | 6.1 | 17.4 | 0.00 | 0.00 | 0.00 | 87 | 1015.2 |
| 20260902174405 | 56 | 324 | 7.8 | 15.6 | 0.00 | 0.00 | 0.00 | 87 | 1015.3 |
| 20260902173405 | 56 | 344 | 6.1 | 17.4 | 0.00 | 0.00 | 0.00 | 87 | 1015.2 |
| 20260902172905 | 56 | 317 | 7.8 | 13.9 | 0.00 | 0.00 | 0.00 | 87 | 1015.2 |
| 20260902172405 | 56 | 328 | 8.7 | 17.4 | 0.00 | 0.00 | 0.00 | 87 | 1015.2 |
| 20260902171409 | 56 | 352 | 10.4 | 17.4 | 0.00 | 0.00 | 0.00 | 87 | 1015.1 |
| 20260902170905 | 56 | 345 | 8.7 | 20.9 | 0.00 | 0.00 | 0.00 | 87 | 1015.1 |
| 20260902170406 | 56 | 307 | 7.8 | 15.6 | 0.00 | 0.00 | 0.00 | 87 | 1015.0 |
| 20260902165906 | 56 | 317 | 11.3 | 22.6 | 0.00 | 0.00 | 0.00 | 87 | 1015.0 |
| 20260902165405 | 56 | 347 | 7.8 | 18.2 | 0.00 | 0.00 | 0.00 | 87 | 1015.0 |
| 20260902164906 | 56 | 342 | 8.7 | 17.4 | 0.00 | 0.00 | 0.00 | 87 | 1014.9 |
| 20260902164405 | 56 | 333 | 7.0 | 19.1 | 0.00 | 0.00 | 0.00 | 87 | 1015.0 |
| 20260902163909 | 56 | 330 | 10.4 | 19.1 | 0.00 | 0.00 | 0.00 | 87 | 1015.0 |
| 20260902163406 | 56 | 342 | 8.7 | 20.0 | 0.00 | 0.00 | 0.00 | 87 | 1014.9 |
| 20260902162905 | 56 | 342 | 7.8 | 17.4 | 0.00 | 0.00 | 0.00 | 87 | 1014.9 |
| 20260902162406 | 56 | 347 | 10.4 | 17.4 | 0.00 | 0.00 | 0.00 | 87 | 1014.9 |
| 20260902161905 | 56 | 356 | 8.7 | 19.1 | 0.00 | 0.00 | 0.00 | 87 | 1014.8 |
| 20260902161406 | 56 | 352 | 9.6 | 18.2 | 0.00 | 0.00 | 0.00 | 87 | 1014.7 |
| 20260902160905 | 56 | 328 | 10.4 | 21.7 | 0.00 | 0.00 | 0.00 | 88 | 1014.7 |
| 20260902160405 | 56 | 320 | 8.7 | 17.4 | 0.00 | 0.00 | 0.00 | 88 | 1014.7 |
| 20260902155905 | 56 | 337 | 8.7 | 18.2 | 0.00 | 0.00 | 0.00 | 88 | 1014.7 |
| 20260902154905 | 57 | 331 | 8.7 | 18.2 | 0.00 | 0.00 | 0.00 | 88 | 1014.7 |
| 20260902154405 | 57 | 355 | 11.3 | 19.1 | 0.00 | 0.00 | 0.00 | 88 | 1014.7 |
| 20260902153905 | 57 | 318 | 11.3 | 19.1 | 0.00 | 0.00 | 0.00 | 88 | 1014.6 |
| 20260902153406 | 56 | 349 | 8.7 | 18.2 | 0.00 | 0.00 | 0.00 | 88 | 1014.6 |
| 20260902152905 | 57 | 341 | 10.4 | 17.4 | 0.00 | 0.00 | 0.00 | 88 | 1014.7 |
| 20260902152405 | 56 | 328 | 10.4 | 17.4 | 0.00 | 0.00 | 0.00 | 88 | 1014.8 |
| 20260902151905 | 56 | 343 | 8.7 | 14.8 | 0.00 | 0.00 | 0.00 | 88 | 1014.7 |
| 20260902150905 | 57 | 345 | 11.3 | 19.1 | 0.00 | 0.00 | 0.00 | 88 | 1014.9 |
| 20260902150405 | 57 | 324 | 7.8 | 20.9 | 0.00 | 0.00 | 0.00 | 88 | 1014.8 |
| 20260902145906 | 57 | 338 | 10.4 | 22.6 | 0.00 | 0.00 | 0.00 | 88 | 1014.8 |
| 20260902145405 | 57 | 340 | 8.7 | 17.4 | 0.00 | 0.00 | 0.00 | 88 | 1015.0 |
| 20260902144905 | 57 | 347 | 7.8 | 18.2 | 0.00 | 0.00 | 0.00 | 88 | 1015.1 |
| 20260902144406 | 57 | 335 | 10.4 | 17.4 | 0.00 | 0.00 | 0.00 | 88 | 1015.1 |
| 20260902143405 | 57 | 343 | 8.7 | 17.4 | 0.00 | 0.00 | 0.00 | 88 | 1015.2 |
| 20260902142405 | 57 | 354 | 8.7 | 17.4 | 0.00 | 0.00 | 0.00 | 88 | 1015.4 |
| 20260902141406 | 56 | 327 | 7.0 | 18.2 | 0.00 | 0.00 | 0.00 | 88 | 1015.4 |
| 20260902140906 | 56 | 341 | 8.7 | 22.6 | 0.00 | 0.00 | 0.00 | 88 | 1015.5 |
| 20260902140405 | 56 | 347 | 7.8 | 20.0 | 0.00 | 0.00 | 0.00 | 88 | 1015.5 |
| 20260902135405 | 56 | 349 | 8.7 | 17.4 | 0.00 | 0.00 | 0.00 | 88 | 1015.5 |
| 20260902134905 | 57 | 347 | 7.8 | 17.4 | 0.00 | 0.00 | 0.00 | 87 | 1015.6 |
| 20260902134405 | 57 | 348 | 7.0 | 19.1 | 0.00 | 0.00 | 0.00 | 87 | 1015.6 |
| 20260902133905 | 57 | 306 | 6.1 | 14.8 | 0.00 | 0.00 | 0.00 | 87 | 1015.7 |
| 20260902133405 | 57 | 348 | 7.8 | 17.4 | 0.00 | 0.00 | 0.00 | 87 | 1015.7 |
| 20260902132905 | 57 | 345 | 10.4 | 18.2 | 0.00 | 0.00 | 0.00 | 87 | 1015.6 |
| 20260902132405 | 57 | 344 | 7.8 | 21.7 | 0.00 | 0.00 | 0.00 | 87 | 1015.5 |
| 20260902131905 | 57 | 352 | 10.4 | 20.9 | 0.00 | 0.00 | 0.00 | 87 | 1015.6 |
| 20260902130905 | 57 | 351 | 8.7 | 17.4 | 0.00 | 0.00 | 0.00 | 87 | 1015.5 |
| 20260902130405 | 57 | 349 | 10.4 | 21.7 | 0.00 | 0.00 | 0.00 | 87 | 1015.6 |
| 20260902125905 | 57 | 341 | 10.4 | 24.3 | 0.00 | 0.00 | 0.00 | 87 | 1015.6 |
| 20260902125406 | 57 | 336 | 8.7 | 17.4 | 0.00 | 0.00 | 0.00 | 87 | 1015.6 |
| 20260902124905 | 57 | 349 | 11.3 | 20.0 | 0.00 | 0.00 | 0.00 | 87 | 1015.4 |
| 20260902124405 | 57 | 349 | 8.7 | 18.2 | 0.00 | 0.00 | 0.00 | 87 | 1015.4 |
| 20260902123905 | 57 | 333 | 8.7 | 18.2 | 0.00 | 0.00 | 0.00 | 87 | 1015.4 |
| 20260902121905 | 57 | 345 | 11.3 | 20.9 | 0.00 | 0.00 | 0.00 | 86 | 1015.2 |
| 20260902121405 | 57 | 330 | 7.8 | 17.4 | 0.00 | 0.00 | 0.00 | 86 | 1015.2 |
| 20260902120905 | 57 | 329 | 10.4 | 19.1 | 0.00 | 0.00 | 0.00 | 86 | 1015.2 |
| 20260902120405 | 57 | 350 | 11.3 | 18.2 | 0.00 | 0.00 | 0.00 | 86 | 1015.2 |
| 20260902115905 | 57 | 337 | 11.3 | 20.0 | 0.00 | 0.00 | 0.00 | 86 | 1015.2 |
| 20260902115406 | 57 | 345 | 8.7 | 18.2 | 0.00 | 0.00 | 0.00 | 86 | 1015.2 |
| 20260902114906 | 57 | 351 | 10.4 | 20.0 | 0.00 | 0.00 | 0.00 | 86 | 1015.2 |
| 20260902113405 | 56 | 345 | 8.7 | 20.0 | 0.00 | 0.00 | 0.00 | 87 | 1015.2 |
| 20260902112905 | 56 | 354 | 7.8 | 19.1 | 0.00 | 0.00 | 0.00 | 87 | 1015.2 |
| 20260902112405 | 56 | 330 | 8.7 | 17.4 | 0.00 | 0.00 | 0.00 | 87 | 1015.3 |
| 20260902111905 | 56 | 342 | 7.8 | 15.6 | 0.00 | 0.00 | 0.00 | 87 | 1015.3 |
| 20260902111405 | 56 | 347 | 6.1 | 17.4 | 0.00 | 0.00 | 0.00 | 87 | 1015.3 |
| 20260902110905 | 56 | 332 | 7.8 | 20.9 | 0.00 | 0.00 | 0.00 | 87 | 1015.4 |
| 20260902110405 | 56 | 332 | 10.4 | 21.7 | 0.00 | 0.00 | 0.00 | 87 | 1015.2 |
| 20260902104405 | 57 | 336 | 10.4 | 20.0 | 0.00 | 0.00 | 0.00 | 86 | 1015.2 |
| 20260902103405 | 56 | 332 | 10.4 | 20.0 | 0.00 | 0.00 | 0.00 | 86 | 1015.2 |
| 20260902102904 | 56 | 357 | 10.4 | 17.4 | 0.00 | 0.00 | 0.00 | 86 | 1015.2 |
| 20260902102405 | 56 | 356 | 12.2 | 25.2 | 0.00 | 0.00 | 0.00 | 86 | 1015.1 |
| 20260902101909 | 56 | 341 | 11.3 | 20.0 | 0.00 | 0.00 | 0.00 | 86 | 1015.2 |
| 20260902101405 | 56 | 341 | 11.3 | 24.3 | 0.00 | 0.00 | 0.00 | 86 | 1015.2 |
| 20260902100905 | 56 | 345 | 10.4 | 20.9 | 0.00 | 0.00 | 0.00 | 86 | 1015.1 |
| 20260902100405 | 56 | 354 | 9.6 | 20.9 | 0.00 | 0.00 | 0.00 | 86 | 1015.2 |
| 20260902095905 | 56 | 351 | 8.7 | 17.4 | 0.00 | 0.00 | 0.00 | 85 | 1015.2 |
| 20260902095405 | 56 | 350 | 8.7 | 15.6 | 0.00 | 0.00 | 0.00 | 85 | 1015.1 |
| 20260902094905 | 56 | 286 | 8.7 | 17.4 | 0.00 | 0.00 | 0.00 | 85 | 1015.1 |
| 20260902094405 | 57 | 346 | 11.3 | 18.2 | 0.00 | 0.00 | 0.00 | 84 | 1015.2 |
| 20260902093905 | 57 | 356 | 8.7 | 20.9 | 0.00 | 0.00 | 0.00 | 84 | 1015.3 |
| 20260902092907 | 57 | 344 | 8.7 | 18.2 | 0.00 | 0.00 | 0.00 | 84 | 1015.1 |
| 20260902092406 | 57 | 346 | 12.2 | 24.3 | 0.00 | 0.00 | 0.00 | 84 | 1015.0 |
| 20260902091905 | 57 | 316 | 11.3 | 20.9 | 0.00 | 0.00 | 0.00 | 84 | 1014.9 |
| 20260902091406 | 57 | 337 | 9.6 | 17.4 | 0.00 | 0.00 | 0.00 | 85 | 1014.9 |
| 20260902090905 | 57 | 327 | 8.7 | 17.4 | 0.00 | 0.00 | 0.00 | 84 | 1014.9 |
| 20260902090406 | 57 | 333 | 7.8 | 20.0 | 0.00 | 0.00 | 0.00 | 84 | 1014.9 |
| 20260902085405 | 57 | 343 | 9.6 | 20.0 | 0.00 | 0.00 | 0.00 | 84 | 1014.6 |
| 20260902084906 | 57 | 356 | 11.3 | 21.7 | 0.00 | 0.00 | 0.00 | 85 | 1014.7 |
| 20260902084407 | 57 | 331 | 8.7 | 17.4 | 0.00 | 0.00 | 0.00 | 85 | 1014.7 |
| 20260902083909 | 57 | 344 | 10.4 | 22.6 | 0.00 | 0.00 | 0.00 | 85 | 1014.7 |
| 20260902083405 | 57 | 330 | 8.7 | 14.8 | 0.00 | 0.00 | 0.00 | 85 | 1014.7 |
| 20260902082406 | 57 | 343 | 10.4 | 20.0 | 0.00 | 0.00 | 0.00 | 84 | 1014.7 |
| 20260902081905 | 57 | 349 | 9.6 | 20.9 | 0.00 | 0.00 | 0.00 | 84 | 1014.6 |
| 20260902081405 | 57 | 331 | 7.8 | 17.4 | 0.00 | 0.00 | 0.00 | 84 | 1014.6 |
| 20260902080904 | 57 | 331 | 6.1 | 17.4 | 0.00 | 0.00 | 0.00 | 84 | 1014.6 |
| 20260902080405 | 57 | 348 | 7.8 | 19.1 | 0.00 | 0.00 | 0.00 | 84 | 1014.5 |
| 20260902075905 | 57 | 344 | 7.8 | 24.3 | 0.00 | 0.00 | 0.00 | 84 | 1014.4 |
| 20260902074905 | 56 | 301 | 10.4 | 20.9 | 0.00 | 0.00 | 0.00 | 85 | 1014.5 |
| 20260902074406 | 56 | 317 | 7.8 | 17.4 | 0.00 | 0.00 | 0.00 | 85 | 1014.5 |
| 20260902073906 | 57 | 345 | 9.6 | 17.4 | 0.00 | 0.00 | 0.00 | 85 | 1014.3 |
| 20260902073405 | 56 | 345 | 8.7 | 21.7 | 0.00 | 0.00 | 0.00 | 85 | 1014.3 |
| 20260902072905 | 56 | 343 | 7.8 | 13.9 | 0.00 | 0.00 | 0.00 | 85 | 1014.3 |
| 20260902072405 | 56 | 344 | 7.8 | 17.4 | 0.00 | 0.00 | 0.00 | 84 | 1014.4 |
| 20260902071905 | 56 | 351 | 9.6 | 19.1 | 0.00 | 0.00 | 0.00 | 84 | 1014.6 |
| 20260902071405 | 56 | 346 | 8.7 | 22.6 | 0.00 | 0.00 | 0.00 | 84 | 1014.6 |